Weather History for Parkersburg, WV

Change the Weather History Date:

Wednesday, December 26, 2012

  Actual Average Record
Temperature  
Mean Temperature 35 °F 33 °F  
Max Temperature 38 °F 41 °F 64 °F (1982)
Min Temperature 32 °F 25 °F -1 °F (1985)
Degree Days  
Heating Degree Days 30 32  
Month to date heating degree days 582 763  
Since 1 July heating degree days 1729 1748  
Cooling Degree Days 0 0  
Month to date cooling degree days 0 0  
Year to date cooling degree days 1180 955  
Moisture  
Dew Point 31 °F    
Average Humidity 83    
Maximum Humidity 96    
Minimum Humidity 70    
Precipitation  
Precipitation 1.06 in 0.10 in 1.06 in (2012)
Month to date precipitation 6.56 2.64  
Year to date precipitation 43.11 40.73  
Sea Level Pressure  
Sea Level Pressure 29.68 in    
Wind  
Wind Speed 10 mph (NNE)    
Max Wind Speed 22 mph    
Max Gust Speed 31 mph    
Visibility 6 miles    
Events Rain , Snow    
T = Trace of Precipitation, MM = Missing Value Source: NWS Daily Summary

Daily Weather History Graph

Daily Weather History Graph

Search for Another Location

Airport:

Trip Planner

Search our weather history database for the weather conditions in past years. The results will help you decide how hot, cold, wet, or windy it might be!

Date:

Astronomy

Dec. 26, 2012 Rise Set
Actual Time 7:44 AM EST 5:08 PM EST
Civil Twilight 7:14 AM EST 5:39 PM EST
Nautical Twilight 6:40 AM EST 6:12 PM EST
Astronomical Twilight 6:07 AM EST 6:45 PM EST
Moon 4:01 PM EST (12/26) 6:06 AM EST (12/26)
Length of Visible Light 10h 24m
Length of Day
9h 24m
Waxing Gibbous, 97% of the Moon is Illuminated
Dec 26
Waxing Gibbous
Dec 28
Full
Jan 4
Last Quarter
Jan 11
New
Jan 18
First Quarter

Hourly Weather History & Observations

Time (EST) Temp. Windchill Dew Point Humidity Pressure Visibility Wind Dir Wind Speed Gust Speed Precip Events Conditions
12:53 AM 35.1 °F 29.3 °F 27.0 °F 72% 30.09 in 10.0 mi NE 6.9 mph - N/A   Overcast
1:53 AM 35.1 °F 27.4 °F 27.0 °F 72% 30.06 in 10.0 mi NE 10.4 mph - N/A   Clear
2:53 AM 35.1 °F 26.9 °F 28.0 °F 76% 30.00 in 10.0 mi ENE 11.5 mph - N/A   Overcast
3:53 AM 36.0 °F 28.5 °F 28.0 °F 73% 29.98 in 10.0 mi NE 10.4 mph - 0.00 in Rain Light Rain
4:53 AM 35.1 °F 27.4 °F 30.0 °F 82% 29.96 in 5.0 mi NE 10.4 mph - 0.02 in Rain Light Rain
5:53 AM 34.0 °F 26.0 °F 30.9 °F 89% 29.91 in 5.0 mi NE 10.4 mph - 0.07 in Rain Light Rain
6:53 AM 35.1 °F 25.5 °F 32.0 °F 89% 29.85 in 5.0 mi ENE 15.0 mph - 0.08 in Rain Light Rain
7:41 AM 35.6 °F 25.5 °F 32.0 °F 87% 29.76 in 4.0 mi ENE 17.3 mph 23.0 mph 0.05 in Rain Rain
7:53 AM 35.1 °F 25.2 °F 32.0 °F 89% 29.78 in 5.0 mi ENE 16.1 mph 26.5 mph 0.06 in Rain Light Rain
8:53 AM 36.0 °F 29.0 °F 33.1 °F 89% 29.78 in 2.0 mi ENE 9.2 mph - 0.14 in Rain Heavy Rain
9:53 AM 35.1 °F 25.9 °F 33.1 °F 92% 29.74 in 3.0 mi NE 13.8 mph - 0.17 in Rain Light Rain
10:51 AM 35.6 °F 25.2 °F 33.8 °F 93% 29.66 in 2.0 mi ENE 18.4 mph 23.0 mph 0.09 in Rain Rain
10:53 AM 36.0 °F 26.3 °F 33.1 °F 89% 29.67 in 2.0 mi ENE 16.1 mph 23.0 mph 0.10 in Rain Rain
11:06 AM 35.6 °F 27.5 °F 33.8 °F 93% 29.65 in 6.0 mi ENE 11.5 mph 24.2 mph 0.03 in Rain Light Rain
11:33 AM 37.4 °F 28.2 °F 33.8 °F 87% 29.64 in 10.0 mi ENE 16.1 mph 31.1 mph 0.03 in   Overcast
11:53 AM 37.0 °F 28.1 °F 33.1 °F 86% 29.64 in 10.0 mi ENE 15.0 mph 25.3 mph 0.03 in   Overcast
12:29 PM 37.4 °F 28.9 °F 33.8 °F 87% 29.60 in 10.0 mi ENE 13.8 mph 21.9 mph N/A   Overcast
12:53 PM 37.9 °F 30.0 °F 33.1 °F 83% 29.60 in 10.0 mi ENE 12.7 mph 19.6 mph N/A   Overcast
1:13 PM 37.4 °F 29.8 °F 32.0 °F 81% 29.57 in 10.0 mi ENE 11.5 mph - 0.00 in Rain Light Rain
1:27 PM 37.4 °F 29.8 °F 32.0 °F 81% 29.56 in 10.0 mi ENE 11.5 mph - 0.00 in   Overcast
1:50 PM 37.4 °F 30.3 °F 32.0 °F 81% 29.56 in 10.0 mi ENE 10.4 mph - 0.00 in   Overcast
1:53 PM 37.9 °F 30.9 °F 32.0 °F 79% 29.57 in 10.0 mi ENE 10.4 mph - 0.00 in   Overcast
2:28 PM 37.4 °F 31.4 °F 32.0 °F 81% 29.55 in 10.0 mi NE 8.1 mph - N/A   Overcast
2:53 PM 37.9 °F 31.5 °F 32.0 °F 79% 29.56 in 10.0 mi NNE 9.2 mph - 0.00 in Rain Light Rain
3:53 PM 37.0 °F 31.0 °F 33.1 °F 86% 29.55 in 4.0 mi NNE 8.1 mph - 0.05 in Rain Rain
4:53 PM 35.1 °F 31.0 °F 33.1 °F 92% 29.55 in 8.0 mi North 4.6 mph - 0.06 in Rain Light Rain
5:53 PM 34.0 °F 29.8 °F 32.0 °F 92% 29.56 in 7.0 mi North 4.6 mph - 0.07 in Rain Light Rain
6:16 PM 33.8 °F 29.6 °F 32.0 °F 93% 29.55 in 8.0 mi North 4.6 mph - 0.02 in Rain Light Rain
6:33 PM 33.8 °F 30.8 °F 32.0 °F 93% 29.57 in 5.0 mi NW 3.5 mph - 0.04 in Rain Light Rain
6:53 PM 33.1 °F 28.7 °F 32.0 °F 96% 29.59 in 5.0 mi NNW 4.6 mph - 0.06 in Rain Light Rain
7:53 PM 33.1 °F - 32.0 °F 96% 29.61 in 3.0 mi Calm Calm - 0.08 in Snow Light Snow
8:00 PM 33.8 °F - 30.2 °F 87% 29.59 in 2.0 mi Calm Calm - 0.01 in Snow Light Snow
8:17 PM 33.8 °F - 30.2 °F 87% 29.59 in 1.8 mi Calm Calm - 0.03 in Snow Light Snow
8:27 PM 32.0 °F - 30.2 °F 93% 29.60 in 1.5 mi Calm Calm - 0.04 in Snow Light Snow
8:53 PM 32.0 °F 27.5 °F 30.9 °F 96% 29.62 in 1.2 mi NW 4.6 mph - 0.06 in Snow Light Snow
9:00 PM 32.0 °F 28.7 °F 30.2 °F 93% 29.61 in 1.2 mi NW 3.5 mph - 0.00 in Snow Light Snow
9:10 PM 32.0 °F 28.7 °F 30.2 °F 93% 29.61 in 1.5 mi NW 3.5 mph - 0.00 in Snow Light Snow
9:17 PM 32.0 °F 26.4 °F 30.2 °F 93% 29.61 in 2.0 mi NW 5.8 mph - 0.00 in Snow Light Snow
9:31 PM 32.0 °F 25.6 °F 30.2 °F 93% 29.62 in 4.0 mi NW 6.9 mph - 0.00 in   Overcast
9:53 PM 33.1 °F 27.7 °F 30.9 °F 92% 29.65 in 6.0 mi WNW 5.8 mph - 0.00 in   Overcast
10:30 PM 33.8 °F 25.8 °F 30.2 °F 87% 29.66 in 9.0 mi WNW 10.4 mph - N/A   Overcast
10:53 PM 33.1 °F 25.5 °F 30.0 °F 89% 29.69 in 5.0 mi West 9.2 mph - 0.00 in Snow Light Snow
11:53 PM 32.0 °F 23.6 °F 30.0 °F 92% 29.74 in 3.0 mi West 10.4 mph - 0.01 in Snow Light Snow